Weather History for KJEF - February, 2013

Change the Weather History Date:

Saturday, February 9, 2013

  Actual Average Record
Temperature  
Mean Temperature 39 °F -  
Max Temperature 46 °F 39 °F 78 °F (1943)
Min Temperature 32 °F 15 °F -13 °F (1979)
Degree Days  
Heating Degree Days 26    
Moisture  
Dew Point 28 °F    
Average Humidity 67    
Maximum Humidity 82    
Minimum Humidity 46    
Precipitation  
Precipitation 0.06 in - - ()
Sea Level Pressure  
Sea Level Pressure 30.16 in    
Wind  
Wind Speed 11 mph (SE)    
Max Wind Speed 16 mph    
Max Gust Speed -    
Visibility 10 miles    
Events Rain    
Averages and records for this station are not official NWS values.
T = Trace of Precipitation, MM = Missing Value Source: NWS Daily Summary

Daily Weather History Graph

Daily Weather History Graph

Search for Another Location

Airport or City:

Trip Planner

Search our weather history database for the weather conditions in past years. The results will help you decide how hot, cold, wet, or windy it might be!

Date:

Astronomy

Feb. 09, 2013 Rise Set
Actual Time 7:06 AM CST 5:40 PM CST
Civil Twilight 6:38 AM CST 6:07 PM CST
Nautical Twilight 6:07 AM CST 6:38 PM CST
Astronomical Twilight 5:36 AM CST 7:09 PM CST
Moon 6:18 AM CST (2/9) 5:22 PM CST (2/9)
Length of Visible Light 11h 29m
Length of Day
10h 34m
Waning Crescent, 0% of the Moon is Illuminated
Feb 9
Waning Crescent
Feb 10
New
Feb 17
First Quarter
Feb 25
Full
Mar 4
Last Quarter

Hourly Weather History & Observations

Time (CST) Temp. Windchill Dew Point Humidity Pressure Visibility Wind Dir Wind Speed Gust Speed Precip Events Conditions
12:53 AM 33.1 °F 27.7 °F 26.1 °F 75% 30.32 in 8.0 mi SE 5.8 mph - N/A   Overcast
1:53 AM 33.1 °F 27.7 °F 26.1 °F 75% 30.32 in 9.0 mi ESE 5.8 mph - N/A   Overcast
2:53 AM 33.1 °F 24.4 °F 26.1 °F 75% 30.30 in 10.0 mi SE 11.5 mph - N/A   Overcast
3:53 AM 33.1 °F 24.9 °F 26.1 °F 75% 30.30 in 10.0 mi SE 10.4 mph - N/A   Overcast
4:53 AM 33.1 °F 26.1 °F 26.1 °F 75% 30.28 in 9.0 mi SE 8.1 mph - N/A   Overcast
5:53 AM 33.1 °F 24.9 °F 26.1 °F 75% 30.28 in 8.0 mi SE 10.4 mph - N/A   Overcast
6:53 AM 33.1 °F 25.5 °F 26.1 °F 75% 30.29 in 9.0 mi SSE 9.2 mph - N/A   Overcast
7:53 AM 32.0 °F 22.1 °F 26.1 °F 79% 30.26 in 7.0 mi SE 13.8 mph - N/A   Overcast
8:53 AM 33.1 °F 23.4 °F 26.1 °F 75% 30.27 in 9.0 mi SE 13.8 mph - N/A   Overcast
9:20 AM 33.8 °F 24.3 °F 26.6 °F 75% 30.28 in 10.0 mi SE 13.8 mph - N/A   Overcast
9:53 AM 35.1 °F 25.5 °F 26.1 °F 70% 30.26 in 10.0 mi SE 15.0 mph - N/A   Mostly Cloudy
10:12 AM 35.6 °F 27.1 °F 26.6 °F 70% 30.27 in 10.0 mi SE 12.7 mph - N/A   Scattered Clouds
10:53 AM 37.0 °F 28.1 °F 27.0 °F 67% 30.23 in 10.0 mi ESE 15.0 mph - N/A   Partly Cloudy
11:53 AM 39.9 °F 32.1 °F 28.0 °F 63% 30.19 in 10.0 mi ESE 13.8 mph - N/A   Clear
12:53 PM 43.0 °F 36.4 °F 28.0 °F 56% 30.14 in 10.0 mi ESE 12.7 mph - N/A   Clear
1:53 PM 45.0 °F 38.9 °F 28.0 °F 52% 30.10 in 10.0 mi ESE 12.7 mph - N/A   Clear
2:53 PM 46.0 °F 40.2 °F 27.0 °F 47% 30.06 in 10.0 mi SE 12.7 mph - N/A   Clear
3:53 PM 46.0 °F 39.9 °F 27.0 °F 47% 30.04 in 10.0 mi ESE 13.8 mph - N/A   Clear
4:53 PM 46.0 °F 40.2 °F 26.1 °F 46% 30.03 in 10.0 mi SSE 12.7 mph - N/A   Mostly Cloudy
5:53 PM 45.0 °F 38.5 °F 26.1 °F 48% 30.02 in 10.0 mi SE 13.8 mph - N/A   Mostly Cloudy
6:53 PM 44.1 °F 38.6 °F 27.0 °F 51% 30.01 in 10.0 mi ESE 10.4 mph - N/A   Overcast
7:53 PM 43.0 °F 36.0 °F 28.0 °F 56% 29.97 in 10.0 mi SE 13.8 mph - 0.00 in Rain Light Rain
8:53 PM 41.0 °F 32.8 °F 30.9 °F 67% 29.96 in 10.0 mi SE 16.1 mph - 0.01 in   Overcast
9:53 PM 39.9 °F 31.8 °F 33.1 °F 77% 29.97 in 10.0 mi SE 15.0 mph - 0.04 in Rain Light Rain
10:53 PM 39.0 °F 32.3 °F 33.1 °F 79% 29.96 in 10.0 mi SE 10.4 mph - 0.00 in   Overcast
11:53 PM 39.0 °F 31.0 °F 34.0 °F 82% 29.92 in 10.0 mi ESE 13.8 mph - 0.01 in   Overcast